TimeCDT,TemperatureF,Dew PointF,Humidity,Sea Level PressureIn,VisibilityMPH,Wind Direction,Wind SpeedMPH,Gust SpeedMPH,PrecipitationIn,Events,Conditions,WindDirDegrees,DateUTC
12:53 AM,70.0,66.0,87,29.95,10.0,Calm,Calm,-,N/A,,Clear,0,2013-06-16 05:53:00
1:53 AM,70.0,66.0,87,29.94,10.0,SE,4.6,-,N/A,,Clear,130,2013-06-16 06:53:00
2:53 AM,68.0,64.9,90,29.92,10.0,ENE,3.5,-,N/A,,Clear,70,2013-06-16 07:53:00
3:53 AM,66.9,64.0,90,29.94,9.0,North,4.6,-,N/A,,Clear,350,2013-06-16 08:53:00
4:14 AM,66.2,64.4,94,30.00,8.0,Calm,Calm,-,N/A,,Scattered Clouds,0,2013-06-16 09:14:00
4:23 AM,66.2,64.4,94,30.00,8.0,Calm,Calm,-,N/A,,Mostly Cloudy,0,2013-06-16 09:23:00
4:46 AM,68.0,64.4,88,30.00,9.0,Calm,Calm,-,N/A,,Overcast,0,2013-06-16 09:46:00
4:53 AM,68.0,64.9,90,29.96,9.0,Calm,Calm,-,N/A,,Overcast,0,2013-06-16 09:53:00
5:53 AM,68.0,66.0,93,29.94,5.0,North,4.6,-,N/A,,Overcast,350,2013-06-16 10:53:00
6:13 AM,68.0,66.2,94,30.00,2.0,North,5.8,-,N/A,,Overcast,360,2013-06-16 11:13:00
6:35 AM,68.0,66.2,94,30.01,1.5,Calm,Calm,-,N/A,,Overcast,0,2013-06-16 11:35:00
6:45 AM,68.0,66.2,94,30.01,2.5,NE,3.5,-,N/A,,Overcast,40,2013-06-16 11:45:00
6:53 AM,68.0,66.0,93,29.97,1.8,Calm,Calm,-,N/A,,Overcast,0,2013-06-16 11:53:00
7:05 AM,68.0,66.2,94,30.02,2.5,ENE,3.5,-,N/A,,Overcast,60,2013-06-16 12:05:00
7:23 AM,68.0,66.2,94,30.02,4.0,Calm,Calm,-,N/A,,Scattered Clouds,0,2013-06-16 12:23:00
7:53 AM,69.1,66.0,90,29.97,4.0,NNE,6.9,-,N/A,,Mostly Cloudy,30,2013-06-16 12:53:00
8:03 AM,69.8,66.2,88,30.02,2.5,NE,5.8,-,N/A,,Mostly Cloudy,40,2013-06-16 13:03:00
8:15 AM,69.8,66.2,88,30.02,4.0,NE,5.8,-,N/A,,Overcast,50,2013-06-16 13:15:00
8:53 AM,71.1,66.0,84,29.98,5.0,NE,8.1,-,N/A,,Haze,50,2013-06-16 13:53:00
9:04 AM,71.6,66.2,83,30.03,6.0,ENE,8.1,-,N/A,,Haze,70,2013-06-16 14:04:00
9:53 AM,75.0,64.9,71,29.99,8.0,ESE,9.2,-,N/A,,Clear,110,2013-06-16 14:53:00
10:53 AM,78.1,64.0,62,29.99,10.0,NE,4.6,-,N/A,,Scattered Clouds,50,2013-06-16 15:53:00
11:53 AM,81.0,62.1,52,29.99,10.0,NNE,8.1,-,N/A,,Partly Cloudy,30,2013-06-16 16:53:00
12:53 PM,80.1,61.0,52,29.96,10.0,NE,4.6,-,N/A,,Scattered Clouds,50,2013-06-16 17:53:00
1:53 PM,82.9,61.0,47,29.95,10.0,ENE,10.4,-,N/A,,Partly Cloudy,70,2013-06-16 18:53:00
2:53 PM,84.0,57.9,41,29.95,10.0,Calm,Calm,-,N/A,,Clear,0,2013-06-16 19:53:00
3:53 PM,84.9,57.0,38,29.94,10.0,East,8.1,-,N/A,,Clear,100,2013-06-16 20:53:00
4:53 PM,84.0,54.0,35,29.92,10.0,SE,8.1,-,N/A,,Clear,140,2013-06-16 21:53:00
5:53 PM,82.0,57.0,42,29.90,10.0,ESE,13.8,20.7,N/A,,Mostly Cloudy,120,2013-06-16 22:53:00
6:53 PM,81.0,57.9,45,29.92,10.0,East,13.8,-,N/A,,Clear,80,2013-06-16 23:53:00
7:44 PM,80.6,53.6,39,30.00,10.0,NE,17.3,25.3,N/A,Thunderstorm,Overcast,50,2013-06-17 00:44:00
7:53 PM,79.0,54.0,42,29.98,10.0,NNE,13.8,24.2,N/A,Thunderstorm,Thunderstorm,30,2013-06-17 00:53:00
8:46 PM,69.8,59.0,68,30.08,10.0,North,11.5,-,0.04,Rain,Light Rain,360,2013-06-17 01:46:00
8:53 PM,70.0,59.0,68,30.06,10.0,North,11.5,-,0.05,Rain,Light Rain,360,2013-06-17 01:53:00
9:53 PM,66.0,60.1,81,30.04,10.0,NE,13.8,-,0.08,Rain,Light Rain,50,2013-06-17 02:53:00
10:10 PM,66.2,59.0,78,29.99,10.0,ESE,13.8,25.3,0.00,Rain,Light Rain,110,2013-06-17 03:10:00
10:53 PM,66.0,59.0,78,29.97,10.0,East,8.1,-,0.00,,Clear,80,2013-06-17 03:53:00
11:53 PM,68.0,57.0,68,29.95,10.0,SSE,5.8,-,N/A,,Clear,150,2013-06-17 04:53:00